Lid_Strength_Index
-1 -1 -1 -1 -1 -1 -1 -1 -0 0 -0 -0 -1 0 1 1 2 5 6 5 4 2 3 7 7 6 5 6 5 5 9 11 10 10 9 7 8 7 7 6 5 5 5 4 2
-1 -1 -1 -1 -1 -1 -1 -1 -1 -0 -1 -1 -0 1 1 0 3 5 2 2 1 1 7 8 9 7 8 6 6 8 10 9 8 9 8 7 7 7 8 7 7 6 4 3 2
-1 -1 -1 -1 -1 -1 -1 -1 -1 -1 -1 -1 -0 0 -0 1 6 5 1 1 0 1 5 7 7 7 8 7 7 8 9 8 8 8 6 7 8 7 8 9 7 6 6 4 3
-1 -1 -1 -1 -1 -1 -1 -1 -1 -1 -1 -1 -1 0 0 3 11 4 1 1 -0 2 5 7 7 7 8 8 7 9 8 7 7 7 7 7 7 8 8 9 6 5 4 4 4
-1 -1 -1 -1 -1 -1 -1 -1 -1 -1 -1 -1 -1 -1 3 8 8 3 1 0 2 3 7 8 8 7 9 8 7 8 8 7 7 8 7 7 8 9 8 8 7 6 4 4 4
-0 -0 -1 -1 -1 -1 -1 -1 -1 -1 -1 -1 -1 -1 4 10 5 4 3 2 4 5 7 7 7 6 7 8 8 7 7 8 8 8 8 8 9 9 9 7 8 7 5 5 4
-0 -0 -1 -1 -1 -1 -1 -1 -1 -1 -1 -1 -1 1 6 7 5 5 3 4 4 5 8 6 5 6 7 8 8 8 10 9 9 8 9 9 11 11 9 9 8 8 6 5 4
-0 -0 -0 -1 -1 -1 -1 -1 -1 -1 -1 -1 -1 3 8 4 5 6 5 6 5 6 6 5 4 6 7 8 9 10 10 12 10 9 10 11 12 10 9 10 10 9 9 6 4
-0 -0 -1 -1 -1 -1 -1 -1 -1 -1 -1 -1 1 3 9 4 7 6 6 7 7 7 6 5 5 7 8 11 12 11 14 13 12 9 10 11 12 10 10 10 10 10 9 7 6
-0 -0 -0 -1 -1 -1 -1 -1 -1 -1 -0 -0 3 6 6 8 6 7 6 7 9 9 9 7 7 9 10 12 15 14 14 12 13 12 11 12 12 11 9 10 10 10 9 9 9
-0 -0 -0 -0 -1 -1 -0 1 4 5 3 7 7 8 7 5 5 7 6 8 8 10 11 9 12 13 11 11 10 11 12 13 12 11 11 12 12 10 10 11 11 10 9 9 9
-0 -0 -0 -0 -1 -1 1 5 5 4 8 5 6 6 5 6 8 8 7 10 11 13 10 10 13 10 9 10 11 12 12 13 12 11 12 12 12 10 10 10 10 10 10 10 10
-0 -0 -0 -0 -1 0 2 4 2 2 8 7 6 7 6 6 8 9 8 9 11 12 11 12 10 8 9 11 12 12 13 14 13 13 13 14 14 12 12 11 10 10 10 10 9
-0 0 0 -0 2 2 3 1 1 1 11 9 9 7 5 5 8 6 5 8 10 12 11 11 9 10 11 12 11 13 11 11 13 14 17 14 19 14 13 12 10 10 10 10 9
-0 -0 0 1 3 4 2 0 0 3 17 9 8 5 5 8 7 8 5 7 10 11 10 12 11 11 11 11 10 12 10 11 12 14 15 16 18 16 13 13 11 10 9 9 9
0 0 1 2 2 2 1 0 3 12 18 11 9 10 9 8 8 7 8 6 7 9 10 11 10 10 10 10 10 10 11 11 12 13 19 15 17 17 15 13 12 10 10 9 9
1 0 2 1 4 1 0 4 13 17 9 12 12 10 11 11 10 9 10 11 12 13 13 12 12 10 9 12 11 11 13 18 19 19 20 17 17 15 14 11 10 10 10 10 9
3 1 2 2 -0 0 3 9 17 12 11 9 10 10 12 11 11 10 10 12 11 11 13 14 16 12 10 11 13 13 13 17 20 20 20 18 19 15 12 10 9 9 10 9 9
3 2 3 4 1 1 6 14 14 11 9 10 10 12 13 11 11 11 11 11 11 10 14 14 14 11 10 10 10 13 15 12 17 21 19 18 16 14 12 11 10 10 10 10 9
6 4 7 5 2 3 9 12 10 8 8 8 12 11 14 13 13 12 12 10 10 9 10 12 15 11 11 10 11 12 11 16 15 22 21 19 18 17 15 12 11 10 10 10 9
7 8 7 5 3 7 13 11 9 7 7 9 10 11 12 13 12 13 12 11 8 9 9 11 12 14 12 13 13 13 14 14 13 15 19 21 19 14 13 11 11 10 9 9 9
9 12 7 5 9 9 12 9 7 8 7 8 8 9 11 11 13 13 13 11 9 9 12 10 12 15 14 12 11 12 13 12 16 18 17 17 17 12 12 10 10 10 8 9 9
12 12 7 7 13 12 9 9 8 9 9 9 9 8 9 11 13 12 11 9 9 10 11 9 12 17 15 13 12 13 13 12 12 14 19 20 18 12 13 10 9 9 9 8 9
11 13 12 10 11 10 11 11 10 7 8 8 9 8 9 11 10 12 11 10 9 9 8 8 11 13 16 15 12 14 13 12 12 16 17 16 16 14 12 11 9 9 8 8 9
9 12 13 13 13 12 9 10 11 11 8 8 10 10 10 12 11 11 10 10 10 9 10 10 14 13 13 12 12 13 12 12 13 12 15 14 14 12 11 10 9 8 8 9 9
11 12 11 12 12 12 11 11 11 10 10 11 11 10 9 11 10 12 10 11 11 11 11 10 15 13 16 12 12 15 13 12 12 12 13 14 14 11 9 9 10 9 9 9 9
8 8 10 12 12 13 12 11 11 9 8 8 9 10 11 10 8 7 7 7 8 10 10 11 13 15 16 15 14 17 14 13 12 11 12 14 12 11 11 10 10 9 9 9 10